Location: Carlisle
(34.5501°N, 84.5969°W)
Time: 01:35:31
(UTC+00:00)

ISS - Visible Passes

Search period start: 27 November 2022 00:00
Search period end: 07 December 2022 00:00
Orbit: 411 x 421 km, 51.6° (Epoch: 26 November)

Date Brightness Start Highest point End Pass type
(mag) Time Alt. Az. Time Alt. Az. Time Alt. Az.
02 Dec -1.3 23:52:57 10° N 23:53:25 12° N 23:53:25 12° N visible
03 Dec -1.4 23:05:40 10° NNE 23:05:54 10° NNE 23:06:09 10° NNE visible
04 Dec -0.7 00:39:53 10° NW 00:39:57 10° NW 00:39:57 10° NW visible
04 Dec -2.8 23:51:18 10° NNW 23:53:46 31° NNE 23:53:46 31° NNE visible
05 Dec -2.3 23:02:51 10° NNW 23:05:25 20° NNE 23:07:51 11° E visible
06 Dec -1.4 00:39:08 10° WNW 00:40:47 23° W 00:40:47 23° W visible
06 Dec -3.7 23:50:08 10° NW 23:53:27 74° SW 23:55:18 24° SE visible
